Location: Denia
(38.8500°N, 0.1170°E)
Time: 02:27:51
(UTC+01:00)

Envisat - Pass Details

Date: 28 January 2020
Orbit: 764 x 766 km, 98.1° (Epoch: 25 February)

Event Time Altitude Azimuth Distance (km) Brightness Sun altitude
Rises 19:54:42 0° 202° (SSW) 3,218 6.6 -19.4°
Reaches altitude 10° 19:57:32 10° 218° (SW) 2,297 6.1 -19.9°
Maximum altitude 20:01:18 21° 267° (W) 1,678 5.7 -20.6°
Drops below altitude 10° 20:05:05 10° 315° (NW) 2,309 6.0 -21.4°
Sets 20:07:58 0° 331° (NNW) 3,240 6.5 -21.9°
